YAOGAN-4

Last updated on Thu Nov 21 2024 00:02:26 GMT+0000 (Coordinated Universal Time)

1 33446U 08061A 24325.43667896 .00002419 00000+0 31862-3 0 9998 2 33446 97.8903 254.5166 0015795 133.3319 226.9213 14.80968177860670
UTC large
Height (km)
Speed (km/s)
/
Latitude / Longitude
Inclination (degrees)
Orbital Period (minutes)
Azimuth
Elevation
Range (km)
Doppler Factor

Next 0 passes for location: London (51.5072 / 0.1276)

Sorry there are no passes over London.